Time,TemperatureF,DewpointF,PressureIn,WindDirection,WindDirectionDegrees,WindSpeedMPH,WindSpeedGustMPH,Humidity,HourlyPrecipIn,Conditions,Clouds,dailyrainin,SoftwareType,DateUTC
2013-05-29 00:00:00,55.0,-99.9,-100.00,SW,226,2.0,5.0,-999,-99.99,,,-99.99,,2013-05-29 07:00:00,
2013-05-29 00:01:00,54.0,-99.9,-100.00,SW,232,2.0,4.0,-999,-99.99,,,-99.99,,2013-05-29 07:01:00,
2013-05-29 00:12:00,54.0,-99.9,-100.00,SW,232,2.0,4.0,-999,-99.99,,,-99.99,,2013-05-29 07:12:00,
2013-05-29 00:35:00,55.0,-99.9,-100.00,SW,216,3.0,3.0,-999,-99.99,,,-99.99,,2013-05-29 07:35:00,
2013-05-29 00:42:00,55.0,-99.9,-100.00,SW,216,3.0,3.0,-999,-99.99,,,-99.99,,2013-05-29 07:42:00,
2013-05-29 00:53:00,55.0,-99.9,-100.00,SW,226,2.0,5.0,-999,-99.99,,,-99.99,,2013-05-29 07:53:00,
2013-05-29 01:32:00,56.0,-99.9,-100.00,SSE,165,2.0,2.0,-999,-99.99,,,-99.99,,2013-05-29 08:32:00,
2013-05-29 01:42:00,56.0,-99.9,-100.00,SSE,165,2.0,2.0,-999,-99.99,,,-99.99,,2013-05-29 08:42:00,
2013-05-29 01:52:00,56.0,-99.9,-100.00,SSE,165,2.0,2.0,-999,-99.99,,,-99.99,,2013-05-29 08:52:00,
2013-05-29 02:33:00,54.0,-99.9,-100.00,SSW,211,0.0,2.0,-999,-99.99,,,-99.99,,2013-05-29 09:33:00,
2013-05-29 02:42:00,54.0,-99.9,-100.00,SSW,211,0.0,2.0,-999,-99.99,,,-99.99,,2013-05-29 09:42:00,
2013-05-29 02:53:00,54.0,-99.9,-100.00,SSW,211,0.0,2.0,-999,-99.99,,,-99.99,,2013-05-29 09:53:00,
2013-05-29 03:03:00,51.0,-99.9,-100.00,WSW,254,2.0,3.0,-999,-99.99,,,-99.99,,2013-05-29 10:03:00,
2013-05-29 03:12:00,51.0,-99.9,-100.00,WSW,254,2.0,3.0,-999,-99.99,,,-99.99,,2013-05-29 10:12:00,
2013-05-29 03:33:00,52.0,-99.9,-100.00,SSW,210,2.0,3.0,-999,-99.99,,,-99.99,,2013-05-29 10:33:00,
2013-05-29 03:42:00,52.0,-99.9,-100.00,SSW,210,2.0,3.0,-999,-99.99,,,-99.99,,2013-05-29 10:42:00,
2013-05-29 03:53:00,52.0,-99.9,-100.00,SSW,210,2.0,3.0,-999,-99.99,,,-99.99,,2013-05-29 10:53:00,
2013-05-29 04:22:00,52.0,-99.9,-100.00,SW,220,1.0,3.0,-999,-99.99,,,-99.99,,2013-05-29 11:22:00,
2013-05-29 04:32:00,51.0,-99.9,-100.00,WSW,238,2.0,3.0,-999,-99.99,,,-99.99,,2013-05-29 11:32:00,
2013-05-29 04:42:00,51.0,-99.9,-100.00,WSW,238,2.0,3.0,-999,-99.99,,,-99.99,,2013-05-29 11:42:00,
2013-05-29 04:52:00,51.0,-99.9,-100.00,WSW,238,2.0,3.0,-999,-99.99,,,-99.99,,2013-05-29 11:52:00,
2013-05-29 05:32:00,53.0,-99.9,-100.00,SSW,194,2.0,2.0,-999,-99.99,,,-99.99,,2013-05-29 12:32:00,
2013-05-29 05:42:00,53.0,-99.9,-100.00,SSW,194,2.0,2.0,-999,-99.99,,,-99.99,,2013-05-29 12:42:00,
2013-05-29 05:52:00,53.0,-99.9,-100.00,SSW,194,2.0,2.0,-999,-99.99,,,-99.99,,2013-05-29 12:52:00,
2013-05-29 06:10:00,51.0,-99.9,-100.00,ESE,114,0.0,3.0,-999,-99.99,,,-99.99,,2013-05-29 13:10:00,
2013-05-29 06:32:00,53.0,-99.9,-100.00,South,182,2.0,4.0,-999,-99.99,,,-99.99,,2013-05-29 13:32:00,
2013-05-29 06:42:00,53.0,-99.9,-100.00,South,182,2.0,4.0,-999,-99.99,,,-99.99,,2013-05-29 13:42:00,
2013-05-29 06:53:00,51.0,-99.9,-100.00,ESE,114,0.0,3.0,-999,-99.99,,,-99.99,,2013-05-29 13:53:00,
2013-05-29 07:02:00,51.0,-99.9,-100.00,ESE,114,0.0,3.0,-999,-99.99,,,-99.99,,2013-05-29 14:02:00,
2013-05-29 07:22:00,51.0,-99.9,-100.00,NNW,340,0.0,1.0,-999,-99.99,,,-99.99,,2013-05-29 14:22:00,
2013-05-29 07:32:00,52.0,-99.9,-100.00,NNW,337,1.0,2.0,-999,-99.99,,,-99.99,,2013-05-29 14:32:00,
2013-05-29 07:42:00,52.0,-99.9,-100.00,NNW,337,1.0,2.0,-999,-99.99,,,-99.99,,2013-05-29 14:42:00,
2013-05-29 07:52:00,52.0,-99.9,-100.00,NNW,337,1.0,2.0,-999,-99.99,,,-99.99,,2013-05-29 14:52:00,
2013-05-29 08:33:00,53.0,-99.9,-100.00,NW,311,2.0,2.0,-999,-99.99,,,-99.99,,2013-05-29 15:33:00,
2013-05-29 08:43:00,53.0,-99.9,-100.00,NW,311,2.0,2.0,-999,-99.99,,,-99.99,,2013-05-29 15:43:00,
2013-05-29 08:53:00,53.0,-99.9,-100.00,NW,311,2.0,2.0,-999,-99.99,,,-99.99,,2013-05-29 15:53:00,
2013-05-29 09:33:00,58.0,-99.9,-100.00,NW,323,2.0,2.0,-999,-99.99,,,-99.99,,2013-05-29 16:33:00,
2013-05-29 09:42:00,58.0,-99.9,-100.00,NW,323,2.0,2.0,-999,-99.99,,,-99.99,,2013-05-29 16:42:00,
2013-05-29 09:52:00,58.0,-99.9,-100.00,NW,323,2.0,2.0,-999,-99.99,,,-99.99,,2013-05-29 16:52:00,
2013-05-29 10:10:00,57.0,-99.9,-100.00,West,278,4.0,4.0,-999,-99.99,,,-99.99,,2013-05-29 17:10:00,
2013-05-29 10:33:00,55.0,-99.9,-100.00,ENE,59,0.0,2.0,-999,-99.99,,,-99.99,,2013-05-29 17:33:00,
2013-05-29 10:43:00,55.0,-99.9,-100.00,ENE,59,0.0,2.0,-999,-99.99,,,-99.99,,2013-05-29 17:43:00,
2013-05-29 10:52:00,57.0,-99.9,-100.00,West,278,4.0,4.0,-999,-99.99,,,-99.99,,2013-05-29 17:52:00,
2013-05-29 11:02:00,57.0,-99.9,-100.00,West,278,4.0,4.0,-999,-99.99,,,-99.99,,2013-05-29 18:02:00,
2013-05-29 11:22:00,56.0,-99.9,-100.00,NW,323,3.0,5.0,-999,-99.99,,,-99.99,,2013-05-29 18:22:00,
2013-05-29 11:32:00,55.0,-99.9,-100.00,NNE,17,2.0,2.0,-999,-99.99,,,-99.99,,2013-05-29 18:32:00,
2013-05-29 11:42:00,55.0,-99.9,-100.00,NNE,17,2.0,2.0,-999,-99.99,,,-99.99,,2013-05-29 18:42:00,
2013-05-29 11:52:00,55.0,-99.9,-100.00,NNE,17,2.0,2.0,-999,-99.99,,,-99.99,,2013-05-29 18:52:00,
2013-05-29 12:20:00,61.0,-99.9,-100.00,West,260,10.0,10.0,-999,-99.99,,,-99.99,,2013-05-29 19:20:00,
2013-05-29 12:32:00,58.0,-99.9,-100.00,WSW,240,14.0,14.0,-999,-99.99,,,-99.99,,2013-05-29 19:32:00,
2013-05-29 12:44:00,58.0,-99.9,-100.00,WSW,240,14.0,14.0,-999,-99.99,,,-99.99,,2013-05-29 19:44:00,
2013-05-29 12:53:00,58.0,-99.9,-100.00,WSW,240,14.0,14.0,-999,-99.99,,,-99.99,,2013-05-29 19:53:00,
2013-05-29 13:03:00,61.0,-99.9,-100.00,West,260,10.0,10.0,-999,-99.99,,,-99.99,,2013-05-29 20:03:00,
2013-05-29 13:12:00,61.0,-99.9,-100.00,West,260,10.0,10.0,-999,-99.99,,,-99.99,,2013-05-29 20:12:00,
2013-05-29 13:33:00,59.0,-99.9,-100.00,WNW,290,16.0,16.0,-999,-99.99,,,-99.99,,2013-05-29 20:33:00,
2013-05-29 13:42:00,59.0,-99.9,-100.00,WNW,290,16.0,16.0,-999,-99.99,,,-99.99,,2013-05-29 20:42:00,
2013-05-29 13:53:00,59.0,-99.9,-100.00,WNW,290,16.0,16.0,-999,-99.99,,,-99.99,,2013-05-29 20:53:00,
2013-05-29 14:10:00,60.0,-99.9,-100.00,WNW,283,12.0,21.0,-999,-99.99,,,-99.99,,2013-05-29 21:10:00,
2013-05-29 14:34:00,60.0,-99.9,-100.00,West,270,12.0,22.0,-999,-99.99,,,-99.99,,2013-05-29 21:34:00,
2013-05-29 14:44:00,60.0,-99.9,-100.00,West,270,12.0,22.0,-999,-99.99,,,-99.99,,2013-05-29 21:44:00,
2013-05-29 14:53:00,60.0,-99.9,-100.00,WNW,283,12.0,21.0,-999,-99.99,,,-99.99,,2013-05-29 21:53:00,
2013-05-29 15:03:00,60.0,-99.9,-100.00,WNW,283,12.0,21.0,-999,-99.99,,,-99.99,,2013-05-29 22:03:00,
2013-05-29 15:10:00,59.0,-99.9,-100.00,WSW,241,12.0,14.0,-999,-99.99,,,-99.99,,2013-05-29 22:10:00,
2013-05-29 15:23:00,59.0,-99.9,-100.00,WNW,296,5.0,14.0,-999,-99.99,,,-99.99,,2013-05-29 22:23:00,
2013-05-29 15:34:00,58.0,-99.9,-100.00,West,268,10.0,18.0,-999,-99.99,,,-99.99,,2013-05-29 22:34:00,
2013-05-29 15:43:00,58.0,-99.9,-100.00,West,268,10.0,18.0,-999,-99.99,,,-99.99,,2013-05-29 22:43:00,
2013-05-29 15:53:00,59.0,-99.9,-100.00,WSW,241,12.0,14.0,-999,-99.99,,,-99.99,,2013-05-29 22:53:00,
2013-05-29 16:02:00,59.0,-99.9,-100.00,WSW,241,12.0,14.0,-999,-99.99,,,-99.99,,2013-05-29 23:02:00,
2013-05-29 16:20:00,61.0,-99.9,-100.00,West,275,4.0,10.0,-999,-99.99,,,-99.99,,2013-05-29 23:20:00,
2013-05-29 16:33:00,59.0,-99.9,-100.00,West,266,7.0,9.0,-999,-99.99,,,-99.99,,2013-05-29 23:33:00,
2013-05-29 16:43:00,59.0,-99.9,-100.00,West,266,7.0,9.0,-999,-99.99,,,-99.99,,2013-05-29 23:43:00,
2013-05-29 16:53:00,59.0,-99.9,-100.00,West,266,7.0,9.0,-999,-99.99,,,-99.99,,2013-05-29 23:53:00,
2013-05-29 17:02:00,61.0,-99.9,-100.00,West,275,4.0,10.0,-999,-99.99,,,-99.99,,2013-05-30 00:02:00,
2013-05-29 17:12:00,61.0,-99.9,-100.00,West,275,4.0,10.0,-999,-99.99,,,-99.99,,2013-05-30 00:12:00,
2013-05-29 18:32:00,59.0,-99.9,-100.00,WSW,244,3.0,8.0,-999,-99.99,,,-99.99,,2013-05-30 01:32:00,
2013-05-29 18:42:00,59.0,-99.9,-100.00,WSW,244,3.0,8.0,-999,-99.99,,,-99.99,,2013-05-30 01:42:00,
2013-05-29 18:53:00,59.0,-99.9,-100.00,WSW,244,3.0,8.0,-999,-99.99,,,-99.99,,2013-05-30 01:53:00,
2013-05-29 19:00:00,58.0,-99.9,-100.00,West,267,7.0,11.0,-999,-99.99,,,-99.99,,2013-05-30 02:00:00,
2013-05-29 19:22:00,58.0,-99.9,-100.00,West,281,8.0,8.0,-999,-99.99,,,-99.99,,2013-05-30 02:22:00,
2013-05-29 19:32:00,59.0,-99.9,-100.00,West,274,9.0,11.0,-999,-99.99,,,-99.99,,2013-05-30 02:32:00,
2013-05-29 19:42:00,59.0,-99.9,-100.00,West,274,9.0,11.0,-999,-99.99,,,-99.99,,2013-05-30 02:42:00,
2013-05-29 19:52:00,59.0,-99.9,-100.00,West,274,9.0,11.0,-999,-99.99,,,-99.99,,2013-05-30 02:52:00,
2013-05-29 20:22:00,55.0,-99.9,-100.00,West,260,6.0,13.0,-999,-99.99,,,-99.99,,2013-05-30 03:22:00,
2013-05-29 20:33:00,56.0,-99.9,-100.00,WSW,245,9.0,10.0,-999,-99.99,,,-99.99,,2013-05-30 03:33:00,
2013-05-29 20:43:00,56.0,-99.9,-100.00,WSW,245,9.0,10.0,-999,-99.99,,,-99.99,,2013-05-30 03:43:00,
2013-05-29 20:53:00,56.0,-99.9,-100.00,WSW,245,9.0,10.0,-999,-99.99,,,-99.99,,2013-05-30 03:53:00,
2013-05-29 21:33:00,53.0,-99.9,-100.00,West,277,8.0,12.0,-999,-99.99,,,-99.99,,2013-05-30 04:33:00,
2013-05-29 21:42:00,53.0,-99.9,-100.00,West,277,8.0,12.0,-999,-99.99,,,-99.99,,2013-05-30 04:42:00,
2013-05-29 21:53:00,53.0,-99.9,-100.00,West,277,8.0,12.0,-999,-99.99,,,-99.99,,2013-05-30 04:53:00,
2013-05-29 22:32:00,52.0,-99.9,-100.00,West,281,2.0,13.0,-999,-99.99,,,-99.99,,2013-05-30 05:32:00,
2013-05-29 22:43:00,52.0,-99.9,-100.00,West,281,2.0,13.0,-999,-99.99,,,-99.99,,2013-05-30 05:43:00,
2013-05-29 22:53:00,52.0,-99.9,-100.00,West,281,2.0,13.0,-999,-99.99,,,-99.99,,2013-05-30 05:53:00,
2013-05-29 23:32:00,52.0,-99.9,-100.00,WSW,256,4.0,10.0,-999,-99.99,,,-99.99,,2013-05-30 06:32:00,
2013-05-29 23:42:00,52.0,-99.9,-100.00,WSW,256,4.0,10.0,-999,-99.99,,,-99.99,,2013-05-30 06:42:00,
2013-05-29 23:52:00,52.0,-99.9,-100.00,WSW,256,4.0,10.0,-999,-99.99,,,-99.99,,2013-05-30 06:52:00,